This demonstration page uses our WeatherBlox Daily Observations layout. Learn more.

Left ArrowRight Arrow

39.51506, -84.39828

Hourly Observations for November 26, 2021

Temp ( °F °C ) Dew Point ( °F °C ) Humidity (%) Winds ( mph kmh ) Pressure ( in mb ) Visibility ( mi km ) Precip ( " mm )
12:15 am 00:15 Cloudy 36 2.1 30 -1.3 78 78 WNW 15 24 30.14 1021 10 16 0.00 0.00
12:35 am 00:35 Cloudy 35 1.8 29 -1.7 78 78 NW 13 20 30.14 1021 10 16 0.00 0.00
12:55 am 00:55 Cloudy 35 1.5 28 -2.1 77 77 NW 15 24 30.14 1021 10 16 0.00 0.00
1:15 am 01:15 Cloudy 35 1.4 28 -2.4 76 76 WNW 14 22 30.15 1021 10 16 0.00 0.00
1:35 am 01:35 Cloudy 34 1 27 -3 75 75 WNW 13 20 30.15 1021 10 16 0.00 0.00
1:55 am 01:55 Cloudy 34 1 26 -3.1 74 74 NW 15 24 30.16 1021 10 16 0.00 0.00
2:15 am 02:15 Cloudy 34 0.9 27 -3 75 75 WNW 13 20 30.17 1022 10 16 0.00 0.00
2:35 am 02:35 Cloudy 33 0.6 26 -3.4 75 75 WNW 9 15 30.17 1022 10 16 0.00 0.00
2:55 am 02:55 Cloudy 33 0.5 26 -3.3 76 76 WNW 16 26 30.18 1022 10 16 0.00 0.00
3:15 am 03:15 Cloudy 33 0.4 26 -3.3 77 77 WNW 12 19 30.18 1022 10 16 0.00 0.00
3:35 am 03:35 Cloudy 33 0.3 26 -3.4 76 76 NW 13 20 30.19 1022 10 16 0.00 0.00
3:55 am 03:55 Cloudy 32 0.1 26 -3.6 76 76 NW 12 19 30.19 1022 10 16 0.00 0.00
4:15 am 04:15 Cloudy 32 0 25 -3.9 75 75 NW 13 20 30.19 1022 10 16 0.00 0.00
4:35 am 04:35 Cloudy 32 -0.2 25 -3.9 76 76 WNW 12 19 30.19 1022 10 16 0.00 0.00
4:55 am 04:55 Cloudy 31 -0.3 24 -4.4 74 74 NW 12 19 30.21 1023 10 16 0.00 0.00
5:15 am 05:15 Cloudy 31 -0.4 24 -4.5 74 74 NW 12 19 30.21 1023 10 16 0.00 0.00
5:35 am 05:35 Cloudy 31 -0.5 23 -4.9 72 72 WNW 12 19 30.20 1023 10 16 0.00 0.00
5:55 am 05:55 Cloudy 31 -0.7 23 -5.2 72 72 NW 12 19 30.21 1023 10 16 0.00 0.00
6:15 am 06:15 Cloudy 30 -1 23 -5 75 75 NW 9 15 30.22 1023 10 16 0.00 0.00
6:35 am 06:35 Cloudy 30 -0.9 22 -5.3 72 72 NW 9 15 30.22 1023 10 16 0.00 0.00
6:55 am 06:55 Cloudy 30 -1.2 22 -5.5 73 73 WNW 8 13 30.22 1023 10 16 0.00 0.00
7:15 am 07:15 Cloudy 30 -1.3 21 -5.9 71 71 WNW 12 19 30.23 1024 10 16 0.00 0.00
7:35 am 07:35 Cloudy 29 -1.5 21 -6.3 70 70 NW 13 20 30.23 1024 10 16 0.00 0.00
7:55 am 07:55 Cloudy 29 -1.8 20 -6.4 71 71 WNW 8 13 30.24 1024 10 16 0.00 0.00
8:15 am 08:15 Cloudy 29 -1.8 20 -6.6 70 70 WNW 10 17 30.24 1024 10 16 0.00 0.00
8:35 am 08:35 Cloudy 29 -1.8 20 -6.7 70 70 WNW 15 24 30.25 1024 10 16 0.00 0.00
8:55 am 08:55 Cloudy 29 -1.8 20 -6.7 70 70 WNW 14 22 30.26 1025 10 16 0.00 0.00
9:15 am 09:15 Cloudy 29 -1.9 20 -6.7 70 70 WNW 12 19 30.27 1025 10 16 0.00 0.00
9:35 am 09:35 Cloudy 29 -1.9 20 -6.9 69 69 WNW 12 19 30.28 1025 10 16 0.00 0.00
9:55 am 09:55 Cloudy 29 -1.8 20 -6.9 68 68 WNW 12 19 30.28 1025 10 16 0.00 0.00
10:15 am 10:15 Cloudy 29 -1.6 19 -7.1 66 66 WNW 14 22 30.28 1025 10 16 0.00 0.00
10:35 am 10:35 Cloudy 29 -1.4 20 -6.8 67 67 WNW 12 19 30.29 1026 10 16 0.00 0.00
10:55 am 10:55 Cloudy 30 -1.1 20 -6.8 66 66 NW 9 15 30.29 1026 10 16 0.00 0.00
11:15 am 11:15 Cloudy 30 -1.1 19 -7.3 63 63 NW 8 13 30.28 1025 10 16 0.00 0.00
11:35 am 11:35 Cloudy 31 -0.8 19 -7 63 63 WNW 12 19 30.28 1025 10 16 0.00 0.00
11:55 am 11:55 Cloudy 31 -0.7 18 -7.7 59 59 NW 12 19 30.27 1025 10 16 0.00 0.00
12:15 pm 12:15 Cloudy 31 -0.6 18 -7.8 59 59 NW 10 17 30.28 1025 10 16 0.00 0.00
12:35 pm 12:35 Cloudy 31 -0.5 19 -7.4 60 60 NW 9 15 30.27 1025 10 16 0.00 0.00
12:55 pm 12:55 Cloudy 31 -0.4 19 -7.3 60 60 NNW 8 13 30.26 1025 10 16 0.00 0.00
1:15 pm 13:15 Cloudy 31 -0.4 18 -7.9 57 57 NNW 8 13 30.25 1024 10 16 0.00 0.00
1:35 pm 13:35 Cloudy 31 -0.5 17 -8.2 56 56 N 10 17 30.24 1024 10 16 0.00 0.00
1:55 pm 13:55 Mostly Cloudy 32 -0.2 18 -7.9 57 57 NW 6 9 30.22 1023 10 16 0.00 0.00
2:15 pm 14:15 Partly Cloudy 31 -0.3 17 -8.2 56 56 WNW 8 13 30.22 1023 10 16 0.00 0.00
2:35 pm 14:35 Partly Cloudy 32 -0.2 17 -8.1 56 56 WNW 8 13 30.23 1024 10 16 0.00 0.00
2:55 pm 14:55 Partly Cloudy 34 1 17 -8.1 51 51 N 13 20 30.21 1023 10 16 0.00 0.00
3:15 pm 15:15 Partly Cloudy 34 1 18 -7.9 52 52 NNW 10 17 30.20 1023 10 16 0.00 0.00
3:35 pm 15:35 Partly Cloudy 34 1 17 -8.1 51 51 WNW 10 17 30.20 1023 10 16 0.00 0.00
3:55 pm 15:55 Mostly Cloudy 34 0.9 18 -8 52 52 NW 5 7 30.18 1022 10 16 0.00 0.00
4:15 pm 16:15 Mostly Cloudy 32 0.1 17 -8.4 53 53 NW 6 9 30.19 1022 10 16 0.00 0.00
4:35 pm 16:35 Mostly Cloudy 32 -0.1 18 -7.8 57 57 WNW 5 7 30.20 1023 10 16 0.00 0.00
4:55 pm 16:55 Mostly Cloudy 30 -0.9 18 -7.8 60 60 NW 5 7 30.21 1023 10 16 0.00 0.00
5:15 pm 17:15 Cloudy 31 -0.5 19 -7.3 60 60 NW 5 7 30.21 1023 10 16 0.00 0.00
5:35 pm 17:35 Cloudy 31 -0.4 18 -7.7 58 58 Calm 30.21 1023 10 16 0.00 0.00
5:55 pm 17:55 Cloudy 31 -0.6 19 -7.4 60 60 Calm 30.20 1023 10 16 0.00 0.00
6:15 pm 18:15 Cloudy 30 -1.2 19 -7.1 65 65 Calm 30.19 1022 10 16 0.00 0.00
6:35 pm 18:35 Cloudy 31 -0.8 21 -6.3 67 67 Calm 30.19 1022 10 16 0.00 0.00
6:55 pm 18:55 Cloudy 30 -1 22 -5.5 72 72 Calm 30.19 1022 10 16 0.00 0.00
7:15 pm 19:15 Cloudy 30 -1 23 -4.8 76 76 Calm 30.19 1022 10 16 0.00 0.00
7:35 pm 19:35 Cloudy 30 -1.2 24 -4.3 80 80 Calm 30.19 1022 10 16 0.00 0.00
7:55 pm 19:55 Cloudy 30 -1.1 22 -5.6 72 72 Calm 30.19 1022 10 16 0.00 0.00
8:15 pm 20:15 Cloudy 30 -0.9 21 -5.9 69 69 Calm 30.19 1022 10 16 0.00 0.00
8:35 pm 20:35 Cloudy 31 -0.8 21 -6 68 68 Calm 30.18 1022 10 16 0.00 0.00
8:55 pm 20:55 Cloudy 30 -1.2 21 -6.3 69 69 Calm 30.18 1022 10 16 0.00 0.00
9:15 pm 21:15 Cloudy 30 -1 21 -6.1 69 69 Calm 30.18 1022 10 16 0.00 0.00
9:35 pm 21:35 Cloudy 31 -0.8 21 -6 68 68 Calm 30.18 1022 10 16 0.00 0.00
9:55 pm 21:55 Cloudy 31 -0.6 20 -6.5 65 65 Calm 30.17 1022 10 16 0.00 0.00
10:15 pm 22:15 Cloudy 31 -0.8 21 -6.3 67 67 Calm 30.17 1022 10 16 0.00 0.00
10:35 pm 22:35 Cloudy 31 -0.8 20 -6.6 65 65 Calm 30.17 1022 10 16 0.00 0.00
10:55 pm 22:55 Cloudy 30 -0.9 21 -6.2 68 68 Calm 30.17 1022 10 16 0.00 0.00
11:15 pm 23:15 Cloudy 31 -0.7 20 -6.8 64 64 WSW 7 11 30.17 1022 10 16 0.00 0.00
11:35 pm 23:35 Cloudy 30 -1 20 -6.7 66 66 WSW 6 9 30.17 1022 10 16 0.00 0.00
11:55 pm 23:55 Cloudy 29 -1.6 20 -6.7 69 69 WSW 5 7 30.16 1021 10 16 0.00 0.00

Powered by AerisWeather